Regional Weather Roundup
Issued by NWS

Home | Current Version | Previous Version | Text Only | Print | Product List | Glossary On
Versions: 1 2 3 4 5 6 7 8 9 10 11 12 13 14 15 16 17 18 19 20 21 22 23 24 25 26 27 28 29 30 31 32 33 34 35 36 37 38 39 40 41 42 43 44 45 46 47 48 49 50
000
ASUS43 KMKX 041410
RWRWI

WISCONSIN REGIONAL WEATHER ROUNDUP
NATIONAL WEATHER SERVICE MILWAUKEE/SULLIVAN WI
800 AM CST WED MAR 04 2015

NOTE: "FAIR" INDICATES FEW OR NO CLOUDS BELOW 12,000 FEET WITH NO
SIGNIFICANT WEATHER AND/OR OBSTRUCTIONS TO VISIBILITY.

WIZ001-002-006>008-014>016-023>028-041500-
NORTHWEST WISCONSIN

CITY           SKY/WX    TMP DP  RH WIND       PRES   REMARKS
SUPERIOR ARPT  FAIR      -5 -12  73 W5        30.12R WCI -16
ASHLAND        SUNNY     -3 -11  68 SW10      30.08R WCI -20
HAYWARD        MOSUNNY   -3 -11  68 VRB7      30.06R WCI -16
SIREN          SUNNY     -3 -10  72 W9        30.12R WCI -19
CUMBERLAND     SUNNY     -8 -13  77 W6        30.09R WCI -21
RICE LAKE      SUNNY     -4 -10  73 W7        30.12R WCI -18
CHETEK         SUNNY     -2  -9  69 W9        30.11R WCI -17
LADYSMITH      SUNNY     -4 -10  73 W9        30.06R WCI -20
EAU CLAIRE     SUNNY      0  -9  65 W10       30.14R WCI -16
MENOMONIE      SUNNY      1  -8  63 W8        30.15R WCI -13
NEW RICHMOND   SUNNY     -2  -9  69 W9        30.15R WCI -17
OSCEOLA        SUNNY     -1  -8  71 W10       30.19R WCI -18
$$

WIZ003>005-009-010-017-018-041500-
NORTH CENTRAL WISCONSIN

CITY           SKY/WX    TMP DP  RH WIND       PRES   REMARKS
MANITOWISH WTR SUNNY     -5 -12  72 W12       29.94R WCI -23
ARBOR VITAE    SUNNY     -2 -10  70 W10       29.95R WCI -19
WOODRUFF       SUNNY     -2 -10  70 W10       29.95R WCI -19
RHINELANDER    FAIR      -3 -12  65 W12G22    29.95R WCI -21
EAGLE RIVER    SUNNY     -3 -12  64 W14G20    29.92R WCI -22
LAND O LAKES   SUNNY     -1 -10  68 W10       29.91R WCI -18
PHILLIPS       SUNNY     -4 -12  68 NW8       29.99R WCI -19
TOMAHAWK       SUNNY     -2 -11  65 W14G21    29.99R WCI -21
MEDFORD        SUNNY     -2  -8  74 W12G21    30.00R WCI -20
MERRILL        SUNNY      0 -11  61 NW10G16   30.00R WCI -16
$$

WIZ029-030-035-036-043>047-041500-
CENTRAL WISCONSIN

CITY           SKY/WX    TMP DP  RH WIND       PRES   REMARKS
WAUSAU         SUNNY      0  -9  65 W10       30.01R WCI -16
MOSINEE        NOT AVBL
MARSHFIELD     SUNNY      1  -7  68 W14       30.05R WCI -17
STEVENS POINT  SUNNY      1  -7  68 W9G18     30.06R WCI -14
WAUPACA        SUNNY      8  -3  59 W9G17     30.06R WCI  -5
WAUTOMA        SUNNY      7  -4  60 W15       30.08R WCI -10
WISC RAPIDS    SUNNY      3  -7  63 NW17      30.09R WCI -17
CAMP DOUGLAS   MOSUNNY    5  -2  72 W10       30.11R WCI -10
$$

WIZ011>013-019>022-031-037>040-048>050-041500-
NORTHEAST WISCONSIN

CITY           SKY/WX    TMP DP  RH WIND       PRES   REMARKS
ANTIGO         SUNNY     -2 -10  66 NW14      29.96R WCI -21
SHAWANO        SUNNY      8  -8  48 W16       30.04R WCI -10
OCONTO         SUNNY      9  -3  60 W15       30.02R WCI  -8
STURGEON BAY   SUNNY      9  -2  61 W10       30.00R WCI  -6
GREEN BAY      SUNNY      8  -3  61 W16       30.03R WCI -10
MANITOWOC      SUNNY     12   3  67 W14G20    30.02R WCI  -3
APPLETON       MOSUNNY    7  -6  56 W15       30.03R WCI -11
CLINTONVILLE   SUNNY      7  -4  61 W14G20    30.04R WCI -10
OSHKOSH        SUNNY      8  -3  61 W16G26    30.04R WCI -10
$$

WIZ032>034-041-042-053>061-041500-
SOUTHWEST WISCONSIN

CITY           SKY/WX    TMP DP  RH WIND       PRES   REMARKS
LA CROSSE      SUNNY      6  -5  60 NW8       30.18R WCI  -7
SPARTA         SUNNY      6  -3  63 NW8       30.14R WCI  -6
VIROQUA        SUNNY      4  -4  69 NW13      30.10R WCI -13
BOSCOBEL       SUNNY      8  -3  61 W8        30.17R WCI  -4
PRAIRIE DU CHI SUNNY      7  -6  56 NW13G21   30.19R WCI  -9
PLATTEVILLE    PTSUNNY    7  -1  70 W12       30.13R WCI  -9
$$

WIZ056-057-062-063-064-067-068-041500-
SOUTH CENTRAL WISCONSIN

CITY           SKY/WX    TMP DP  RH WIND       PRES   REMARKS
REEDSBURG      SUNNY      8  -2  64 NW9G18    30.10R WCI  -6
BARABOO/DELLS  SUNNY      8  -4  58 NW15G21   30.09R WCI -10
LONE ROCK      SUNNY      9  -3  58 NW12      30.14R WCI  -6
MINERAL POINT  FLURRIES  10   1  67 W12       30.10R WCI  -4
MADISON        PTSUNNY   11  -1  58 NW10      30.09R WCI  -3
MIDDLETON      SUNNY     12   1  62 NW10      30.09R WCI  -1
WATERTOWN      SUNNY     10  -1  61 NW13      30.07R WCI  -6
MONROE         MOSUNNY   10   3  72 NW13      30.07R WCI  -5
JANESVILLE     CLOUDY    14   3  62 NW15      30.07R WCI  -1
$$

WIZ051-052-058>065-066-070>072-041500-
SOUTHEAST WISCONSIN

CITY           SKY/WX    TMP DP  RH WIND       PRES   REMARKS
MILWAUKEE      PTSUNNY   14   0  53 NW16      30.05R WCI  -2
WAUKESHA       MOSUNNY   10   0  61 NW12G23   30.05R WCI  -4
MILWAUKEE/TIMM SUNNY     12   0  57 NW16      30.06R WCI  -4
RACINE         CLOUDY    16   5  62 NW10G16   30.06R WCI   4
BURLINGTON     SUNNY     12   1  61 NW17      30.06R WCI  -5
KENOSHA        CLOUDY    16   5  62 NW13      30.05R WCI   2
FOND DU LAC    FAIR       9  -3  58 NW18G24   30.05R WCI -10
SHEBOYGAN      SUNNY     10  -2  58 NW16      30.02R WCI  -7
WEST BEND      MOSUNNY   10   0  61 W9G17     30.03R WCI  -2
JUNEAU         SUNNY      8  -2  63 W9G16     30.07R WCI  -5
$$

LSZ147-162-041500-
LAKE SUPERIOR

STATION/POSITION TIME  TEMP    WIND        PRES    WAVE
                       AIR SEA DIR/SP/G            HT/PER
                 (UTC) (F)     (DEG/KT/KT) (MB)    (FT/S)
DEVILS ISLAND    1400    2     290/ 25/ 32 1019.3R
PORT WING        1300    1     290/ 15/ 20 1017.9R
$$

LMZ867-665-643>646-041500-
LAKE MICHIGAN

STATION/POSITION TIME  TEMP    WIND        PRES    WAVE
                       AIR SEA DIR/SP/G            HT/PER
                 (UTC) (F)     (DEG/KT/KT) (MB)    (FT/S)
NORTHPORT PIER   1305   10     280/  8/ 19 1014.2R
SISTER BAY       1313   10     320/ 11/ 13   N/A
KEWAUNEE LAKESHO 1300   10     310/  5/ 10 1014.5R
SHEBOYGAN LAKESH 1400   11     300/ 18/ 22 1018.3R
PORT WASHINGTON  1340   13     300/  6/ 10 1018.3R
MILWAUKEE LAKESH 1300   15     300/ 12/ 18   N/A
KENOSHA   LAKESH 1400   16     310/ 14/ 21 1017.6R
$$

TC  - TEMPERATURE IN CELSIUS
VSB - VISIBILITY IN STATUTE MILES
WCI - WIND CHILL INDEX
HX  - HEAT INDEX



USA.gov is the U.S. government's official web portal to all federal, state and local government web resources and services.